Вернуться в каталог

STARLINK-30439

АктивенСвязьVLEO
NORAD 57867·PAYLOAD·🇺🇸 United States

Запущен Sep 16, 2023 с Cape Canaveral Space Force Station

Loading…

Ближайшие Пролёты (ближайшие 24 часа)

TLE

СвежийSource: CelesTrak SupGP

Эпоха: Sep 15, 2026, 02:52 UTC

1 57867C 23144D   26258.11993056  .00014032  00000+0  50815-3 0  2583
2 57867  43.0019 295.3568 0001366 262.0390 286.3978 15.27577192    18

Отслеживайте STARLINK-30439 в реальном времени с AllMySat

Download on the App Store